Location: Cahas Mountain Overlook
(37.0833°N, 80.1000°W)
Time: 12:17:34
(UTC-05:00)

SR - Pass Details

Date: 11 December 2023
Orbit: 574 x 867 km, 66.7° (Epoch: 29 February)

Event Time Altitude Azimuth Distance (km) Brightness Sun altitude
Rises 18:36:35 0° 338° (NNW) 3,432 ? -18.0°
Reaches altitude 10° 18:39:15 10° 345° (NNW) 2,469 ? -18.5°
Maximum altitude 18:44:41 43° 56° (NE) 1,128 ? -19.6°
Enters shadow 18:45:54 37° 89° (E) 1,220 ? -19.8°
Drops below altitude 10° 18:49:44 10° 127° (SE) 2,305 - -20.5°
Sets 18:52:09 0° 134° (SE) 3,180 - -21.0°
